Location: *
(51.2167°N, 10.0667°E)
Time: 01:49:51
(UTC+00:00)

Helios 1A Rocket - Pass Details

Date: 12 December 2019
Orbit: 564 x 587 km, 98.3° (Epoch: 25 January)

Event Time Altitude Azimuth Distance (km) Brightness Sun altitude
Rises 16:08:33 0° 173° (S) 2,788 6.7 -8.3°
Reaches altitude 10° 16:10:43 10° 177° (S) 1,890 5.9 -8.6°
Maximum altitude 16:14:46 60° 257° (WSW) 663 3.6 -9.2°
Drops below altitude 10° 16:18:50 10° 339° (NNW) 1,892 5.5 -9.8°
Sets 16:21:00 0° 343° (NNW) 2,791 6.3 -10.1°
